Wind_Speed
10 10 8 7 6 6 5 5 5 4 4 5 5 5 4 5 4 4 5 5 5 6 6 7 7 8 8 8 9 9 9 10 10 11 11 11 10 8 9 10 10 11 11 11 11 11 11 10 10 11 11 11 11 12 11 13 15 13 14 15 14 14 14 13 10 10 9 5 8 8 11 10 12 16 12 11 11 6 7 9 8 10 10 17 23 22 17 11
9 10 9 7 6 6 5 5 5 4 3 3 3 3 3 3 4 4 4 4 4 4 5 5 6 6 6 6 7 7 8 8 9 11 10 8 8 8 9 9 9 10 10 10 10 9 8 7 6 8 10 9 10 11 10 13 16 15 15 15 16 15 13 12 10 4 3 5 7 7 9 10 11 14 15 14 13 9 7 9 10 11 12 15 20 19 14 12
9 9 9 8 6 5 5 5 5 5 4 3 2 2 2 2 3 3 3 3 3 3 3 4 4 5 4 5 5 5 6 5 7 9 7 7 7 7 8 9 9 9 10 10 10 10 9 4 4 7 9 10 10 11 11 13 16 17 15 16 16 14 13 12 9 2 2 2 4 8 8 9 13 13 13 14 15 12 9 11 13 15 15 16 21 19 14 13
8 9 9 8 7 5 5 5 5 4 4 3 2 1 1 2 2 3 3 3 2 2 2 3 3 3 3 3 3 2 1 2 5 5 4 5 5 6 7 8 8 9 10 9 11 13 12 6 7 8 10 11 10 11 12 12 14 15 17 19 15 10 11 9 10 8 5 1 2 6 7 8 12 11 10 11 14 13 12 15 16 16 16 18 24 20 13 13
8 8 8 8 7 5 4 4 4 4 4 3 2 1 0 1 1 2 2 2 2 2 3 3 2 2 3 3 2 4 5 3 1 1 1 3 3 4 5 6 7 8 9 9 11 14 14 11 9 10 12 12 11 12 13 13 13 12 16 20 14 9 8 4 7 9 9 6 2 4 7 8 9 9 9 11 11 10 9 12 15 16 17 22 24 18 12 12
7 8 8 8 7 6 4 4 4 4 4 4 4 3 2 2 1 1 1 2 2 3 3 3 3 3 4 4 7 9 7 3 1 0 1 2 2 3 4 5 6 8 8 11 12 12 12 11 9 12 12 12 12 13 14 12 13 12 13 16 15 12 9 3 4 9 11 10 6 4 7 8 10 10 10 11 10 8 11 12 11 12 18 22 24 17 12 13
7 7 7 7 7 6 4 3 3 4 4 4 4 4 4 4 3 3 2 2 2 3 3 4 4 5 5 7 11 10 4 1 1 1 2 2 3 4 4 5 6 8 9 11 13 10 8 9 9 12 11 12 12 13 14 13 14 14 13 11 12 13 11 5 4 8 10 12 9 7 8 9 10 11 10 13 11 8 12 15 12 11 16 21 23 17 15 15
7 7 7 6 6 6 5 3 3 3 4 4 4 4 4 4 4 4 3 3 3 4 4 5 6 7 8 9 10 6 0 1 3 1 1 2 4 5 5 7 7 9 12 13 13 7 6 7 8 11 11 11 9 11 14 14 15 16 15 10 9 11 11 8 6 6 6 10 10 7 10 10 9 9 10 14 14 8 12 15 8 8 14 20 23 20 19 18
6 6 6 6 5 5 5 4 3 3 4 4 4 4 4 4 4 4 4 4 4 5 6 7 8 10 12 12 9 6 0 1 4 3 0 3 4 6 7 9 9 11 13 11 10 8 8 6 8 10 12 11 8 10 11 14 15 14 16 12 9 10 11 10 7 7 7 10 11 8 10 12 10 10 10 14 16 10 13 16 9 8 12 18 23 23 22 20
5 5 5 5 5 5 5 4 3 3 3 3 4 4 3 3 3 3 3 3 4 5 7 8 10 13 14 13 11 8 3 6 3 2 2 3 5 7 8 9 10 12 11 4 5 10 7 7 9 8 12 12 8 9 11 12 12 10 13 13 10 9 10 12 10 9 9 10 11 11 12 13 13 14 15 16 16 13 16 17 12 11 11 13 21 24 22 19
4 4 4 4 4 4 4 4 4 3 2 2 3 4 3 2 2 2 2 2 3 5 7 9 11 14 15 13 10 5 5 10 6 4 4 5 6 7 8 9 9 11 10 1 4 6 8 10 10 9 9 10 8 9 11 12 10 8 10 12 11 10 10 12 11 10 11 11 12 12 12 14 15 16 18 17 15 17 17 14 12 13 13 13 18 23 20 18
4 4 4 4 4 4 4 4 3 3 2 2 2 3 3 2 1 1 1 2 3 4 6 9 11 14 14 11 7 4 6 10 8 5 5 6 6 6 7 8 9 11 12 7 4 8 13 13 14 12 8 8 7 8 10 12 11 9 10 11 12 12 13 14 12 12 12 11 11 11 11 15 17 19 18 14 14 19 16 11 12 14 14 13 16 20 17 17
3 4 4 4 4 4 4 3 3 3 2 2 2 1 2 2 1 1 1 1 2 3 5 8 10 12 10 6 5 4 6 10 8 6 6 6 6 6 7 8 8 10 12 13 8 11 15 14 16 13 8 8 7 9 11 10 10 12 12 13 14 15 17 17 16 15 12 11 11 10 10 14 18 21 20 15 18 21 15 11 12 14 14 14 16 16 13 15
3 3 3 4 4 4 4 4 3 3 3 2 2 1 1 1 1 1 1 1 2 3 5 6 8 10 9 4 4 4 6 8 7 6 6 6 6 6 7 8 8 8 9 11 11 12 13 12 15 13 9 10 9 11 12 10 11 12 13 14 15 16 18 19 20 17 14 14 12 10 11 15 16 19 21 19 20 19 14 12 13 15 15 15 16 13 11 14
3 3 4 4 4 4 4 4 3 3 3 3 2 1 0 0 0 1 1 1 2 3 4 5 6 7 4 3 5 4 7 7 7 8 7 6 7 5 5 6 7 8 9 9 9 9 10 11 13 11 8 10 10 9 10 12 13 12 13 16 15 15 18 16 20 18 16 15 13 11 13 14 13 13 19 25 21 17 13 13 15 16 16 16 17 14 13 15
6 5 4 4 4 4 4 4 4 3 3 3 2 1 1 1 1 2 2 2 2 2 4 4 5 6 3 1 5 5 6 7 7 9 8 7 6 4 5 7 7 7 7 7 8 8 9 10 11 11 9 9 11 11 10 12 14 13 14 15 14 15 14 9 19 19 17 13 12 14 13 13 9 4 19 24 18 14 12 14 16 16 17 17 17 15 14 16
9 8 6 5 4 4 4 3 3 3 3 3 2 2 1 1 2 2 2 3 3 3 3 2 4 5 3 3 5 5 5 8 8 8 8 8 8 8 8 9 5 5 5 5 6 6 6 8 9 11 12 10 10 12 13 13 14 14 15 15 14 15 15 11 17 20 20 15 13 14 13 14 11 5 15 17 14 13 12 14 16 16 18 19 17 16 15 16
11 10 9 7 6 5 4 3 3 3 2 2 2 2 2 1 1 2 2 4 5 4 2 1 3 1 4 3 2 4 8 9 8 8 8 8 10 11 10 7 4 5 6 6 6 5 6 8 8 9 11 11 10 11 14 13 10 10 11 13 13 15 18 14 11 15 17 14 13 13 13 15 14 11 12 14 15 14 13 15 16 17 19 20 19 17 16 17
11 11 10 9 8 6 5 4 2 2 2 1 1 1 2 1 1 1 2 4 6 6 5 5 6 2 2 2 5 9 11 9 7 8 9 8 9 10 10 9 8 8 8 8 7 6 8 9 9 11 12 13 13 14 15 12 8 9 6 6 10 15 16 13 10 11 14 12 13 13 14 15 15 16 15 13 16 17 16 16 17 19 19 20 20 18 17 17
11 11 10 10 8 8 7 6 4 2 1 2 2 1 2 2 2 5 4 5 8 8 1 6 6 2 4 4 7 8 7 7 7 7 8 9 9 9 10 10 9 10 10 11 8 7 9 10 12 14 12 12 12 13 15 13 10 10 8 9 11 11 11 9 5 9 12 11 12 12 14 15 16 18 18 16 18 19 18 19 20 20 20 20 19 19 18 18
10 10 10 9 9 8 8 8 7 4 2 1 3 3 2 4 2 2 6 4 5 7 3 5 8 7 7 6 7 7 5 5 6 5 7 8 8 8 10 10 9 11 12 11 10 9 10 12 15 15 13 13 12 12 15 17 15 12 12 13 12 10 10 12 10 8 10 13 14 13 16 19 20 21 21 19 20 21 21 21 21 22 21 21 20 19 18 18
8 9 9 9 9 8 8 8 7 6 5 2 2 3 3 6 9 8 6 3 5 8 7 9 10 11 13 10 8 7 3 5 6 7 7 6 8 9 9 10 10 12 11 11 11 10 11 14 15 14 12 14 13 10 13 19 21 17 14 14 15 14 13 16 18 15 12 12 13 13 17 21 23 24 24 22 22 22 22 23 23 23 23 22 22 21 20 19
7 8 8 8 8 8 9 8 7 8 5 3 2 3 6 6 10 11 8 6 7 8 6 8 7 7 11 10 10 6 5 5 7 11 10 7 8 10 10 10 11 13 13 14 14 13 14 13 13 13 11 12 11 9 9 12 15 15 14 15 16 15 15 15 11 8 7 9 11 13 16 21 23 23 24 23 23 22 20 21 21 23 24 24 23 23 23 23
8 7 7 7 8 8 8 8 7 6 5 7 7 6 6 3 6 9 11 9 7 7 6 7 6 5 8 8 7 5 5 6 6 11 14 10 7 10 11 12 11 13 15 15 14 15 17 13 10 12 12 13 12 11 10 9 11 13 15 16 16 16 15 13 5 3 7 11 14 16 17 21 23 22 22 21 23 24 22 20 21 22 24 23 24 24 23 23
9 8 8 7 7 7 6 6 6 6 9 9 7 6 3 2 1 3 7 7 6 6 7 9 8 8 11 11 8 4 5 9 7 10 14 11 8 9 11 12 13 14 15 15 15 17 17 12 10 9 8 11 11 12 12 9 11 15 16 17 19 18 15 13 9 7 10 12 15 16 12 16 22 20 20 19 21 24 25 24 24 23 23 23 24 23 23 24
9 9 9 8 8 7 6 6 5 10 12 5 8 6 2 1 3 7 5 4 5 5 4 5 6 9 11 9 7 5 7 11 11 9 11 11 13 13 11 11 13 15 14 13 16 19 16 12 11 10 9 10 10 12 13 12 14 15 15 15 17 17 15 14 13 11 12 13 12 12 10 12 20 15 14 17 18 21 23 24 25 25 24 25 24 23 24 25
9 9 9 8 9 7 7 8 6 7 5 6 7 4 3 0 3 4 1 3 5 5 3 4 4 9 9 4 7 7 4 6 13 12 9 10 13 14 13 12 12 14 13 13 15 16 15 12 10 9 11 12 12 14 14 15 17 15 11 10 12 14 14 15 15 14 15 15 11 11 12 13 19 17 12 14 17 17 19 20 22 23 23 24 24 24 24 23
7 7 8 8 8 8 8 8 6 4 1 3 5 3 2 1 4 2 2 1 3 3 5 5 5 7 6 4 7 9 6 5 11 11 7 8 9 11 12 14 12 12 12 14 15 11 11 12 10 9 11 13 15 15 14 14 16 15 9 8 12 13 12 14 15 15 16 16 15 16 15 12 15 19 15 14 16 16 18 19 19 20 20 21 23 23 22 22
6 6 7 7 7 7 7 7 6 6 4 4 5 2 1 2 4 1 3 2 0 3 6 6 7 5 4 5 7 7 7 7 7 5 6 9 8 11 11 11 12 14 12 12 15 11 9 11 11 11 14 14 14 13 14 15 15 13 10 8 11 11 11 13 14 16 16 15 17 19 17 11 11 17 17 15 17 17 17 18 18 18 17 17 20 21 19 21
6 6 6 6 6 6 6 6 6 6 6 5 4 3 1 1 1 2 5 3 2 3 3 5 6 3 5 8 8 6 6 8 8 5 6 8 7 11 12 9 10 13 12 9 13 14 12 10 10 12 14 14 14 12 12 12 12 13 11 9 11 13 14 14 14 16 14 13 18 21 20 16 10 13 18 15 15 19 15 14 16 16 16 15 16 18 18 19
5 5 5 6 6 6 6 6 6 6 6 5 4 3 3 3 3 4 4 4 4 2 2 6 5 3 6 7 8 9 8 10 10 7 7 7 7 9 10 11 10 9 11 12 15 16 15 14 12 12 13 14 15 14 11 9 10 11 11 10 12 14 14 14 14 15 10 9 16 19 19 19 13 14 17 11 4 13 11 9 12 13 16 16 16 18 18 18
5 5 5 5 5 6 6 6 6 5 5 5 3 4 6 8 7 6 3 5 5 2 2 5 4 5 7 7 9 10 9 10 10 10 9 9 11 11 9 11 10 8 11 12 13 15 16 17 15 12 13 13 14 15 12 12 13 12 12 13 12 10 10 11 10 10 10 12 17 18 16 17 17 18 21 14 6 8 10 8 9 10 13 17 18 19 19 18
5 4 5 5 5 5 5 5 5 4 5 3 2 5 7 8 7 5 6 6 3 2 5 6 6 7 8 9 11 11 10 11 10 11 11 11 13 13 11 11 11 12 12 8 8 11 12 14 14 14 14 14 14 15 14 14 15 15 15 14 12 9 6 6 7 7 10 12 14 14 14 15 16 16 19 19 14 12 13 14 14 12 12 16 19 19 18 18
5 5 5 5 5 5 5 5 4 4 4 2 2 6 7 9 8 7 7 6 4 5 7 7 7 9 10 13 15 12 10 11 10 12 12 12 14 14 13 13 14 16 15 11 11 12 11 11 12 14 14 14 15 16 15 14 14 16 17 16 16 15 10 7 7 7 8 10 10 10 8 7 11 11 12 14 14 14 15 16 17 14 13 15 18 18 17 18
6 6 5 6 6 5 5 5 5 4 3 2 4 7 9 9 8 7 7 6 6 8 9 9 10 13 14 15 16 12 9 10 10 12 13 13 14 15 15 15 15 16 15 14 12 12 13 14 12 12 14 14 14 16 15 16 17 16 16 18 19 19 17 15 13 14 16 14 12 13 10 9 12 13 13 15 16 16 15 14 16 16 15 15 16 17 17 17
7 6 6 8 9 8 7 6 5 4 3 3 6 9 9 8 8 7 8 9 10 12 13 13 14 15 15 14 11 7 7 11 11 11 14 14 15 17 16 15 14 14 14 14 13 12 13 14 12 11 13 14 14 15 15 16 17 15 15 18 18 17 18 18 16 17 17 12 11 15 15 16 17 16 18 19 19 19 18 17 17 16 16 16 17 18 18 17
9 7 7 10 12 11 10 9 7 4 4 5 7 10 10 10 9 7 9 11 12 12 13 14 13 13 13 12 9 8 8 10 11 12 13 13 14 15 15 14 12 11 12 12 14 13 13 16 15 13 14 15 14 15 17 18 19 19 19 18 15 15 17 17 12 10 10 8 10 15 16 16 16 14 16 18 18 18 19 20 18 17 17 18 18 19 18 18
11 9 6 9 14 14 12 12 9 7 7 7 10 12 10 9 9 7 10 13 12 11 12 13 12 12 12 11 12 13 11 9 9 11 13 13 13 12 11 11 10 10 10 10 11 11 11 16 17 15 16 17 16 18 22 21 20 22 23 19 16 16 16 16 12 8 8 6 7 14 17 17 18 17 16 17 17 17 19 18 17 18 19 18 19 20 19 18
13 12 9 10 14 15 15 14 12 11 10 7 10 11 8 8 9 8 11 14 11 10 11 12 12 12 12 12 13 14 14 14 13 13 13 12 11 11 11 12 10 9 9 10 11 11 10 14 16 14 14 15 15 18 22 21 20 21 23 22 21 19 18 18 15 12 11 7 6 11 13 14 19 20 18 18 18 17 18 18 16 17 19 20 20 20 21 21
13 11 10 13 14 15 15 14 14 13 9 8 10 10 8 7 7 8 12 16 13 9 10 11 12 12 12 13 13 13 14 15 15 15 15 13 13 14 11 9 10 10 9 9 11 12 11 14 17 16 14 15 16 17 18 20 19 19 20 20 19 20 20 18 18 20 17 9 7 7 8 14 17 15 15 17 15 13 13 15 16 15 16 20 21 21 22 22
12 8 10 15 15 14 14 15 14 9 8 9 9 8 8 11 12 11 12 15 15 10 9 11 13 13 14 14 14 14 14 14 15 15 15 14 14 13 9 6 7 9 10 10 11 13 12 12 16 18 15 17 20 18 18 20 21 20 20 20 18 18 18 12 10 17 19 14 12 8 7 17 21 15 14 16 14 13 13 13 15 14 14 16 18 20 22 23
10 7 11 13 12 14 14 14 10 7 8 9 8 8 11 15 16 12 10 11 12 10 9 10 11 12 13 13 14 14 14 15 15 13 14 14 12 12 10 7 5 6 9 10 10 13 15 14 17 21 20 21 23 22 22 22 23 23 22 23 22 21 21 16 11 16 18 17 19 15 11 21 26 18 15 16 13 13 13 12 14 15 15 15 13 12 16 20
9 8 13 12 9 12 15 12 9 8 9 8 10 12 12 14 13 11 10 10 10 10 9 9 10 11 12 12 12 13 13 14 14 13 15 15 12 13 11 8 7 5 7 9 8 12 14 12 16 21 21 23 24 24 25 24 24 25 24 24 24 22 21 18 16 19 19 17 18 14 10 20 24 15 12 13 11 11 11 9 10 12 14 15 15 13 13 13
11 10 12 12 13 14 12 8 8 10 11 10 12 14 13 13 13 12 11 9 9 10 10 11 11 11 12 12 12 13 13 14 14 13 14 14 13 12 10 11 11 7 8 11 10 12 12 8 11 15 14 15 16 15 17 16 16 17 17 16 18 18 17 16 17 17 16 17 19 13 10 20 25 19 16 16 14 16 16 13 14 13 12 14 18 20 19 16
12 9 5 9 16 17 11 9 10 11 13 13 15 18 16 13 12 12 14 14 12 12 12 12 11 11 12 12 13 14 14 14 15 14 14 14 14 13 11 13 11 8 12 16 15 15 15 11 12 13 10 9 10 9 10 10 12 13 14 13 15 16 17 18 19 17 16 20 21 16 15 23 27 25 23 21 18 19 19 18 20 20 18 18 19 20 20 22
11 8 10 14 16 12 7 10 11 10 11 13 18 19 16 12 11 12 16 16 12 10 12 12 12 12 13 13 14 15 14 15 16 16 16 16 16 15 14 15 13 11 13 15 15 17 19 18 17 17 18 19 19 19 18 19 20 20 20 21 21 21 20 20 19 19 20 21 22 22 21 23 27 28 27 25 22 20 21 22 23 26 28 29 29 28 26 26
11 8 15 20 16 6 5 9 10 12 12 14 18 17 13 12 12 10 13 13 10 9 11 11 11 12 13 12 13 14 15 16 17 18 18 18 19 18 16 16 16 15 13 12 13 14 15 18 19 19 24 27 27 28 26 24 25 25 25 26 27 27 26 25 25 24 22 21 22 25 25 23 28 34 36 37 33 28 26 26 26 29 33 35 37 37 35 33
13 12 17 20 16 11 11 13 14 18 19 16 15 14 12 14 13 11 12 12 11 11 10 11 11 11 12 12 13 15 15 15 16 17 17 18 18 18 19 18 19 19 16 14 15 13 13 18 20 20 25 28 27 27 25 24 24 25 26 28 30 30 28 27 27 26 26 25 26 31 33 31 35 42 45 45 39 32 31 31 31 33 34 33 33 32 32 31
18 17 17 19 19 17 16 18 19 20 18 14 13 14 14 13 13 12 12 14 15 13 12 13 13 12 13 14 14 16 15 14 16 16 16 18 17 17 18 18 18 18 16 16 17 17 19 22 19 19 25 28 26 25 23 24 25 26 29 33 34 33 29 28 29 29 31 32 33 37 39 40 42 44 44 43 41 39 38 36 33 31 30 29 29 29 29 29
21 20 19 21 21 17 14 17 19 17 14 12 13 14 12 11 11 12 11 12 14 14 13 15 15 14 15 15 15 16 15 16 18 16 16 20 21 17 17 17 17 16 16 17 18 18 20 21 18 19 25 28 26 23 22 23 24 26 32 36 34 30 29 29 31 31 32 33 35 35 36 42 47 46 43 45 47 45 38 32 29 28 27 27 27 28 29 29
21 21 21 21 20 16 13 13 14 13 13 12 12 12 11 10 10 12 12 13 14 14 14 14 15 15 15 16 17 16 16 19 21 19 18 21 21 18 17 17 17 17 19 19 19 18 18 20 21 19 24 30 26 19 21 24 25 30 39 39 33 30 32 33 33 33 33 34 35 35 37 44 48 47 45 44 40 36 31 28 27 28 27 27 27 27 27 28
20 20 20 20 20 17 13 11 11 11 12 13 12 11 12 13 12 13 15 16 13 11 11 13 14 15 15 15 15 15 19 24 26 26 25 23 20 20 21 22 21 22 23 22 21 20 19 22 24 20 23 31 26 18 21 23 22 28 34 28 24 25 28 29 30 32 32 32 33 36 39 40 38 37 37 34 31 32 32 32 33 34 33 32 32 32 32 33
Wind_Direction
336 340 337 334 337 341 339 335 328 323 312 298 287 276 268 265 261 257 259 260 260 256 253 250 248 249 248 248 246 244 245 243 243 242 239 241 247 240 232 234 227 224 221 215 214 212 209 205 207 207 203 207 209 203 207 217 216 221 232 239 245 243 241 247 258 248 238 184 147 183 191 194 200 190 204 201 185 183 169 178 168 162 178 177 180 193 210 220
335 341 341 335 338 347 351 349 348 347 341 322 299 281 269 264 260 254 253 253 254 253 252 252 251 252 252 251 248 247 246 244 245 245 243 238 238 231 225 226 221 218 213 204 201 196 187 186 199 199 194 204 223 219 214 220 215 217 226 233 240 242 240 250 273 281 212 193 182 198 196 207 208 192 216 214 196 206 182 192 191 171 185 202 209 215 224 233
334 340 342 338 337 349 359 4 6 5 5 353 324 292 264 249 247 247 245 244 246 249 250 252 255 255 255 250 245 246 248 256 257 254 243 229 228 228 225 221 217 213 205 199 191 171 151 161 215 201 195 207 222 223 220 222 218 218 224 232 235 241 255 254 258 278 84 79 169 199 198 206 209 199 219 214 202 211 206 207 191 186 202 221 232 230 232 243
332 336 340 341 337 345 1 14 21 19 17 5 348 313 261 230 227 230 229 234 233 237 240 240 245 245 238 231 233 236 254 291 270 264 234 214 226 221 221 219 209 206 198 194 190 167 151 178 227 211 204 213 219 217 218 222 218 219 224 229 229 244 274 252 228 236 229 270 104 184 194 194 201 199 210 203 204 213 223 224 201 203 210 212 234 236 233 244
328 332 336 341 339 341 356 16 28 29 27 25 22 8 280 213 211 212 217 220 212 216 218 220 220 206 199 187 154 125 100 65 295 289 209 196 220 210 214 212 199 199 190 182 179 166 159 176 212 213 212 216 219 215 216 223 219 222 227 231 239 254 282 266 221 231 215 214 158 169 193 195 192 191 200 193 203 206 205 220 207 207 195 197 227 236 234 248
319 326 330 338 343 342 347 7 27 33 34 38 41 46 59 76 106 129 172 185 192 201 195 195 186 175 175 157 141 130 115 79 80 81 284 196 189 202 209 197 192 184 175 177 164 149 154 166 195 208 215 221 223 221 220 224 219 226 233 236 246 249 265 307 223 220 208 214 228 214 205 211 206 198 200 193 208 214 177 165 162 181 183 198 228 237 245 263
311 319 324 334 344 344 342 352 17 29 31 40 47 50 58 67 77 85 107 133 163 172 165 166 156 157 159 150 150 143 131 345 73 147 223 193 168 185 191 175 178 159 160 175 146 126 151 165 193 202 212 225 226 226 226 228 221 227 238 243 248 238 242 269 241 232 223 219 228 231 215 211 201 200 213 202 213 245 204 173 144 161 185 211 236 246 257 276
308 313 318 325 336 343 339 335 357 22 29 37 43 48 56 66 73 78 90 106 125 133 141 144 140 144 139 143 151 143 273 337 69 59 184 165 162 163 166 154 151 146 156 158 128 128 188 178 203 206 213 226 233 236 228 226 222 229 238 247 255 229 229 250 253 248 218 201 212 217 202 199 195 207 223 206 210 249 226 204 171 175 208 233 248 256 265 279
310 309 311 314 323 336 338 332 341 10 28 33 37 46 57 67 76 79 88 99 111 124 133 134 136 137 133 137 133 103 118 301 47 358 263 154 158 153 160 145 138 145 147 139 128 168 200 196 215 219 230 241 256 249 227 219 220 228 233 240 253 229 230 245 243 242 222 206 218 224 208 207 216 225 224 206 209 238 238 224 205 197 227 250 258 261 269 278
311 308 304 306 312 326 337 338 338 351 18 33 37 40 50 69 83 91 100 105 114 124 128 134 140 139 136 135 116 94 240 269 335 286 203 164 164 156 165 146 141 144 126 107 157 166 192 224 228 239 249 254 265 249 222 218 227 233 231 237 246 234 234 236 234 238 230 221 221 225 223 223 229 233 232 217 210 231 246 236 216 208 220 246 262 265 271 274
313 309 305 304 307 318 331 340 344 345 353 21 41 41 46 59 74 103 113 114 128 131 133 139 142 143 142 140 125 108 245 260 262 228 200 185 177 168 171 153 154 144 119 194 223 189 225 234 227 229 238 243 255 249 227 225 238 239 234 239 242 237 230 229 234 231 224 228 225 226 233 234 234 232 233 232 224 229 236 232 214 212 215 228 257 267 271 268
317 315 313 308 306 311 320 334 343 346 343 355 32 47 48 51 56 101 133 135 138 137 141 144 148 153 152 154 167 176 226 241 242 226 211 198 187 183 173 158 171 161 143 168 237 258 238 215 207 209 233 248 255 260 232 226 236 237 240 244 240 234 231 234 231 220 226 233 221 225 238 237 235 231 237 239 220 216 217 217 212 211 214 218 243 261 268 265
318 320 321 316 312 310 316 326 335 347 351 345 356 43 53 59 64 76 123 134 145 144 148 150 156 164 160 169 219 239 227 225 227 224 215 205 197 191 179 171 183 180 165 164 185 236 226 204 198 203 246 251 251 258 229 221 235 239 243 242 244 239 234 235 224 216 225 225 209 214 240 247 239 234 240 231 208 213 215 212 211 209 211 210 227 247 251 252
314 317 324 325 319 314 318 323 331 345 352 355 351 5 37 68 80 113 148 148 151 143 153 158 162 171 172 196 260 271 237 219 212 215 208 201 200 191 188 190 192 192 189 184 192 214 211 201 196 198 226 224 243 261 236 233 240 241 242 237 244 246 245 236 217 209 209 214 215 221 253 257 250 247 239 214 202 217 223 215 211 209 209 208 217 224 219 232
341 324 319 322 327 329 331 331 335 341 346 2 5 0 39 137 121 147 160 157 156 150 160 163 164 169 178 278 288 265 233 225 223 219 211 213 209 198 207 204 201 205 206 209 215 210 201 198 192 199 233 232 247 264 245 240 234 234 238 236 234 241 263 246 203 195 199 218 230 225 252 262 268 261 218 197 199 216 222 214 210 208 208 209 215 212 205 222
24 5 343 330 328 330 335 341 343 347 347 354 10 23 68 163 176 180 189 177 164 154 161 165 170 159 116 292 263 266 246 233 234 226 224 231 197 166 247 235 214 219 215 216 224 214 204 197 191 209 239 241 244 249 248 240 227 227 232 241 238 232 258 226 182 195 203 216 228 220 239 259 281 232 180 187 200 208 214 213 207 207 209 207 213 210 204 220
39 35 26 9 354 340 331 335 340 351 357 357 6 10 51 131 169 185 197 188 175 157 165 181 178 179 182 226 267 296 271 239 237 234 235 232 188 169 230 236 217 225 232 235 226 210 207 199 198 216 221 222 237 239 241 236 226 226 223 236 248 242 253 223 190 205 210 213 221 222 235 245 257 212 178 195 210 205 206 213 209 207 209 207 210 210 205 218
40 41 40 36 29 16 356 340 326 329 341 358 9 12 25 36 162 181 190 197 182 144 78 240 176 200 256 247 259 240 234 240 246 244 240 231 209 200 206 208 222 233 234 252 236 206 211 212 218 231 224 224 232 227 231 235 240 248 233 232 245 250 261 260 219 199 199 211 220 226 242 249 255 243 213 209 221 223 210 211 214 211 213 210 209 214 214 219
38 39 39 41 40 39 35 24 359 310 272 280 341 35 21 1 16 338 222 202 180 139 35 288 200 130 309 208 184 215 234 252 254 246 240 226 220 216 195 188 212 221 219 236 234 210 210 217 223 232 231 228 226 224 231 242 274 296 292 276 265 250 245 256 253 204 188 203 219 233 247 254 257 252 244 223 223 230 216 212 217 215 218 218 216 219 220 222
36 36 37 40 40 44 45 45 44 28 241 238 220 147 7 322 21 346 258 201 193 181 12 287 211 162 299 238 211 234 259 271 256 243 241 227 215 211 202 199 206 214 217 221 225 215 213 227 231 229 234 235 229 228 237 249 269 288 300 302 290 267 239 240 238 182 184 212 227 239 249 255 257 256 256 241 228 231 225 219 220 218 218 221 225 225 223 222
29 33 36 37 39 43 45 49 49 45 56 36 197 169 331 287 204 255 247 219 231 230 231 239 224 226 231 205 217 253 280 283 266 228 227 222 206 205 213 209 203 214 221 216 223 223 217 235 238 232 241 248 237 218 229 246 255 273 293 289 286 280 263 265 263 224 224 248 250 251 257 261 262 258 256 245 236 237 234 226 221 220 220 222 226 227 228 227
21 29 32 36 40 43 46 49 50 47 49 51 158 184 284 251 205 213 237 208 235 251 240 228 229 222 213 210 240 254 219 244 243 208 229 234 196 195 213 216 211 219 225 214 223 233 229 242 244 239 242 246 250 236 231 241 246 264 289 285 280 277 272 269 262 252 250 258 259 262 266 267 265 258 253 246 239 240 243 240 228 220 222 226 228 228 229 229
16 24 28 35 38 42 48 48 50 47 37 47 60 297 294 250 213 219 216 171 197 240 250 238 238 230 229 240 256 244 175 224 236 218 248 263 197 188 204 220 223 225 227 216 220 235 240 249 240 230 233 238 254 265 258 251 251 266 277 273 271 264 268 270 244 218 234 248 252 262 271 272 267 257 250 243 237 236 243 249 240 228 228 229 230 232 234 234
20 23 27 32 34 40 47 47 51 49 39 39 19 316 299 268 226 225 213 191 200 233 244 225 213 214 222 228 240 225 191 237 244 221 240 251 205 198 211 226 235 234 235 226 223 239 251 263 243 226 239 244 250 261 270 275 269 267 256 253 259 256 267 281 263 219 267 269 265 270 276 273 266 255 246 240 233 232 234 241 243 242 242 238 233 233 233 238
27 27 30 28 30 36 40 47 54 48 45 32 343 307 312 342 33 162 188 202 210 229 246 222 198 207 222 231 233 209 219 244 236 215 233 239 211 214 229 236 238 235 237 234 234 244 251 249 229 227 246 243 246 253 255 259 262 264 254 245 251 256 270 287 292 298 292 285 271 260 261 273 272 252 233 234 232 231 232 235 237 241 246 245 242 239 232 231
31 31 32 28 30 33 28 35 53 50 40 345 290 299 306 351 80 122 146 225 218 200 225 205 201 228 238 250 230 213 253 241 217 214 237 237 216 217 233 234 234 239 241 244 248 244 240 238 230 235 248 241 245 248 241 241 250 258 258 250 245 248 260 275 283 286 281 282 266 234 230 277 289 270 230 229 231 231 232 231 233 236 239 241 244 244 238 234
27 27 28 28 28 28 27 27 43 58 33 286 297 312 272 281 119 137 127 264 200 167 181 182 227 241 238 246 200 209 273 210 204 226 245 247 225 216 232 229 228 246 243 249 261 243 229 242 242 234 243 243 247 250 243 240 246 250 254 254 247 245 252 265 273 270 267 274 260 228 235 265 282 283 263 235 225 225 227 227 230 234 237 240 240 239 241 243
17 18 19 21 22 22 26 26 29 46 22 304 342 327 266 221 170 164 339 315 138 160 197 202 254 252 231 230 199 212 258 228 226 239 238 259 235 205 239 244 233 249 241 233 250 245 227 239 239 233 241 245 248 251 243 232 241 253 259 256 253 252 255 258 261 259 258 263 256 239 234 239 258 269 268 247 232 222 218 224 230 232 236 238 235 235 239 242
2 3 6 10 12 13 16 19 23 27 24 7 2 4 358 226 205 231 285 280 42 209 205 222 266 273 218 219 207 216 248 236 240 243 229 267 248 197 226 246 235 257 263 234 234 243 248 244 240 241 241 242 245 244 238 230 232 244 248 257 258 254 257 254 252 256 255 253 254 249 241 239 256 258 254 247 229 215 214 224 229 230 234 235 231 232 231 232
350 349 353 359 359 0 5 6 10 14 14 14 20 38 46 224 244 284 250 262 315 193 199 253 262 249 214 222 221 227 246 230 234 256 242 261 255 209 217 226 230 257 270 250 239 246 252 243 234 240 239 236 239 244 241 225 223 239 243 252 258 248 250 252 248 253 260 256 252 253 251 251 264 257 258 262 226 208 220 230 225 225 228 227 226 226 220 222
348 343 346 350 350 352 353 355 359 4 6 8 23 38 7 336 303 265 254 295 287 223 257 272 259 243 240 246 244 240 252 242 228 237 238 233 232 223 228 229 229 252 254 245 245 245 243 241 237 241 242 237 239 250 252 225 223 243 244 248 258 249 239 239 241 242 250 260 254 257 254 247 252 252 258 289 238 201 217 221 213 222 227 225 222 220 218 218
349 344 348 345 345 348 345 349 349 346 353 358 21 34 356 323 284 256 300 323 281 259 307 270 260 271 266 277 268 245 250 251 231 232 242 235 223 214 222 229 220 230 240 236 241 239 233 238 241 242 240 235 237 245 245 234 232 238 239 243 252 254 241 234 236 235 239 251 253 262 267 251 252 252 252 276 290 220 224 225 227 239 233 226 219 216 219 218
354 347 348 346 346 343 335 340 338 334 349 346 7 18 347 310 289 288 317 316 297 323 313 287 271 276 276 275 268 253 247 250 245 243 245 247 244 232 232 238 229 236 249 259 264 255 244 240 240 239 236 228 229 237 236 228 222 222 232 239 242 249 256 248 248 244 246 252 252 261 274 265 260 257 251 263 274 258 250 248 249 257 246 231 222 217 219 218
5 3 2 2 360 349 338 338 332 337 342 325 358 352 312 281 284 308 318 317 347 335 302 296 283 277 278 271 269 269 258 250 248 249 249 252 257 255 250 248 243 248 263 276 270 261 257 249 239 238 238 226 221 230 241 249 243 233 232 235 245 255 265 269 269 270 277 294 297 281 273 259 253 250 246 258 269 266 261 255 250 254 253 238 228 225 225 223
10 14 14 17 15 3 352 339 335 347 338 343 349 312 281 279 292 313 323 311 327 328 307 306 298 283 277 269 266 267 259 260 260 253 254 251 252 257 254 251 250 253 260 264 262 259 259 257 251 250 245 230 225 230 241 259 264 257 247 240 242 251 261 270 276 283 291 301 298 280 264 253 254 252 247 257 267 262 261 264 257 254 252 241 233 231 229 229
6 7 17 24 21 13 1 342 341 342 316 341 333 294 284 309 312 315 325 307 305 317 309 302 296 284 279 273 264 250 247 270 279 266 258 256 257 257 252 249 250 249 248 253 261 267 268 266 264 268 255 233 232 240 241 248 256 264 265 254 249 251 256 263 273 280 283 284 274 267 263 263 265 262 254 256 260 259 261 264 259 254 249 240 235 234 232 233
356 353 10 17 12 11 5 353 350 332 327 345 311 288 296 312 308 310 317 309 307 313 304 297 298 295 298 298 283 269 262 265 273 270 261 260 266 267 261 258 252 244 243 255 265 269 277 277 269 268 263 246 240 248 248 247 252 258 261 263 268 269 259 254 260 268 263 260 267 264 260 261 262 263 263 260 257 261 268 265 256 253 251 244 238 236 237 240
348 344 349 0 2 2 355 350 344 327 336 334 296 290 295 292 301 311 303 306 314 310 297 291 292 295 302 301 290 288 284 270 266 268 267 269 271 269 265 261 251 243 249 261 270 270 274 278 272 260 259 257 251 254 256 253 252 256 262 266 270 272 267 257 252 260 261 258 266 265 264 263 259 258 265 266 265 270 277 274 262 256 255 250 245 241 242 246
347 342 323 332 350 348 344 343 335 329 336 317 289 294 299 291 304 310 298 306 319 309 293 289 289 293 295 290 289 290 288 284 283 279 277 279 274 270 269 264 251 246 254 260 266 273 274 275 275 262 258 265 260 254 258 259 254 255 260 262 261 263 268 267 261 257 258 259 264 266 266 261 258 262 268 273 279 281 279 278 276 267 259 253 249 247 245 246
355 354 309 310 332 335 335 334 328 330 325 296 286 292 299 295 303 318 308 306 312 304 289 289 291 293 292 288 288 287 285 286 285 281 279 279 281 284 279 260 246 244 256 262 263 272 274 268 271 269 265 266 259 250 253 257 256 255 257 260 261 258 261 271 272 265 263 269 269 267 267 262 263 273 279 278 286 292 284 280 281 278 266 255 251 249 244 241
359 2 292 296 316 321 326 332 332 329 303 293 291 290 295 283 282 303 308 303 313 312 288 285 287 287 288 287 286 285 284 281 279 278 276 273 279 280 257 234 254 256 260 270 271 274 274 269 275 278 271 262 258 256 258 261 263 262 262 263 264 262 264 272 274 267 271 276 271 269 275 271 271 278 287 286 290 297 295 286 279 281 281 267 257 257 251 241
355 341 290 292 306 311 322 331 326 304 292 296 279 277 298 290 287 300 296 289 302 300 286 284 282 283 285 283 283 283 283 281 278 276 274 274 278 273 256 255 275 264 262 271 277 275 272 272 276 275 271 267 266 267 267 269 270 269 265 263 266 268 267 263 261 265 268 270 271 271 269 272 273 274 283 290 291 293 294 287 279 280 286 277 257 257 259 248
347 319 301 300 303 319 330 331 318 296 292 294 282 286 300 295 293 297 288 287 294 287 284 281 278 283 283 282 284 282 283 282 278 275 276 277 276 272 270 270 267 275 280 271 270 277 276 273 273 274 275 275 274 273 270 267 265 265 265 264 265 267 268 272 281 280 273 267 268 266 260 268 271 272 285 292 294 296 294 292 292 289 284 277 262 257 258 250
329 322 321 314 311 326 333 318 307 294 286 292 294 295 296 292 290 285 276 279 282 280 280 275 276 281 279 279 280 278 281 282 278 276 277 275 269 269 281 281 272 278 275 257 253 269 278 279 277 280 286 282 277 274 269 266 265 269 276 274 269 275 284 290 291 286 279 270 267 267 266 268 271 277 286 288 289 293 291 290 293 295 295 293 286 276 263 248
330 325 310 299 309 323 324 301 299 293 291 295 290 289 296 296 288 278 274 276 278 278 276 273 276 277 277 278 277 274 274 275 277 277 274 272 268 268 278 281 276 272 268 264 262 265 270 274 273 273 275 273 273 270 278 304 313 301 295 288 282 285 287 286 285 279 271 269 270 270 272 276 280 283 283 284 286 288 289 286 281 277 278 285 288 283 272 260
341 318 285 299 317 328 320 309 308 301 305 301 289 292 299 293 286 282 279 283 288 278 265 266 273 274 274 275 274 276 273 270 275 275 272 271 268 267 270 271 273 274 273 276 277 273 271 267 261 260 261 263 268 272 285 305 308 297 289 285 281 279 277 278 278 269 268 276 276 270 271 281 285 283 281 282 283 284 287 289 285 278 273 274 276 276 275 272
341 313 298 314 329 329 301 308 300 289 296 297 293 298 294 283 289 286 277 284 295 286 274 273 274 272 271 271 273 277 276 272 272 272 273 272 268 267 266 263 267 273 278 286 287 285 277 266 260 261 262 264 269 274 281 289 288 285 283 281 278 274 273 272 268 268 275 282 279 274 276 279 279 278 277 276 278 284 288 289 290 287 282 279 280 279 277 273
325 312 310 317 323 313 295 292 286 285 291 291 288 288 284 284 288 277 273 286 288 284 287 282 275 272 271 271 271 274 276 276 274 272 274 273 271 272 268 261 260 264 272 278 276 277 279 270 265 264 264 266 270 273 277 279 278 277 276 274 272 269 269 269 269 272 275 274 275 277 278 277 275 276 277 278 282 288 290 290 291 291 288 285 284 282 281 277
316 315 314 310 312 314 302 294 298 302 303 296 281 277 280 284 284 277 279 285 279 275 281 283 281 279 276 273 273 275 277 277 276 276 275 272 271 274 275 269 262 260 264 268 268 269 269 266 262 261 266 269 270 272 277 277 276 276 272 269 267 268 271 274 274 272 270 269 270 272 275 276 275 275 277 280 285 288 292 294 294 291 288 285 283 283 282 279
315 315 312 307 311 315 303 299 309 312 312 302 284 287 292 283 281 287 285 281 279 274 275 280 281 278 277 277 272 270 273 272 268 269 273 271 266 266 274 274 270 268 265 265 272 270 261 258 260 264 269 272 271 274 277 275 275 274 270 266 267 271 275 273 270 269 269 269 269 271 273 272 270 271 273 278 284 290 293 295 294 289 286 285 284 284 284 282
313 312 311 310 311 310 299 297 299 297 303 297 276 281 290 276 280 294 286 275 274 274 276 282 280 275 274 273 265 263 270 269 260 257 263 266 261 257 264 266 266 272 271 268 272 269 259 260 265 267 271 273 273 275 275 276 278 273 268 267 269 271 269 267 267 267 268 270 271 271 269 269 271 275 277 280 285 289 290 290 288 282 278 279 278 276 277 277
310 311 312 310 309 312 310 303 294 284 288 284 267 269 280 277 283 291 286 280 277 280 281 279 278 277 274 271 263 261 272 271 262 256 256 258 259 257 258 260 260 263 266 267 267 263 259 262 264 264 268 271 274 276 278 283 281 270 266 269 270 268 268 269 269 268 267 268 269 269 269 272 277 281 283 284 285 285 286 284 279 275 275 277 276 274 273 271
Height
3103 3103 3102 3101 3101 3100 3099 3099 3098 3097 3097 3097 3096 3096 3096 3096 3096 3096 3096 3097 3097 3097 3098 3098 3098 3099 3099 3100 3100 3101 3101 3101 3101 3101 3102 3102 3103 3105 3105 3106 3106 3107 3108 3109 3111 3112 3113 3114 3116 3117 3119 3120 3121 3122 3125 3127 3128 3130 3130 3130 3129 3128 3128 3127 3126 3126 3125 3125 3124 3125 3128 3130 3130 3131 3132 3133 3135 3136 3137 3137 3137 3137 3136 3133 3133 3132 3134 3136
3103 3102 3102 3101 3100 3100 3099 3098 3098 3097 3097 3096 3096 3096 3096 3096 3096 3096 3096 3096 3096 3097 3097 3097 3098 3098 3099 3099 3100 3100 3100 3101 3101 3101 3101 3102 3103 3104 3105 3105 3106 3106 3107 3109 3110 3111 3113 3114 3116 3117 3119 3120 3122 3123 3125 3126 3127 3128 3129 3129 3128 3127 3127 3126 3125 3124 3124 3124 3125 3127 3129 3130 3130 3131 3131 3132 3136 3135 3136 3137 3136 3137 3134 3133 3133 3134 3135 3136
3103 3102 3101 3101 3100 3100 3099 3098 3098 3097 3097 3096 3096 3096 3095 3095 3096 3096 3096 3096 3096 3096 3097 3097 3097 3098 3098 3099 3099 3100 3100 3100 3100 3100 3101 3102 3102 3103 3104 3104 3105 3106 3107 3108 3109 3110 3112 3115 3117 3118 3119 3121 3123 3124 3125 3125 3126 3127 3127 3127 3126 3126 3126 3126 3125 3123 3123 3124 3125 3127 3128 3130 3129 3130 3130 3132 3135 3135 3136 3136 3135 3135 3134 3132 3131 3133 3135 3135
3102 3102 3101 3101 3100 3100 3099 3098 3098 3097 3097 3096 3096 3095 3095 3095 3095 3095 3095 3096 3096 3096 3096 3097 3097 3098 3098 3099 3099 3100 3100 3100 3100 3100 3101 3101 3102 3103 3103 3104 3105 3105 3106 3107 3108 3109 3111 3115 3118 3119 3120 3121 3123 3124 3125 3125 3125 3126 3125 3125 3125 3126 3125 3124 3125 3125 3125 3125 3126 3127 3128 3129 3128 3129 3130 3131 3134 3134 3135 3135 3134 3133 3133 3130 3127 3131 3135 3134
3102 3101 3101 3100 3100 3099 3099 3098 3098 3097 3097 3096 3096 3095 3095 3095 3095 3095 3095 3096 3096 3096 3096 3097 3097 3098 3098 3099 3100 3100 3101 3100 3099 3100 3101 3101 3102 3102 3103 3104 3105 3105 3106 3107 3108 3109 3110 3114 3118 3120 3120 3121 3123 3124 3125 3125 3124 3125 3124 3123 3124 3126 3124 3123 3124 3124 3125 3125 3126 3127 3128 3129 3128 3130 3130 3132 3134 3132 3133 3133 3133 3133 3131 3127 3124 3130 3133 3133
3101 3101 3101 3100 3100 3099 3099 3098 3098 3097 3097 3096 3096 3095 3095 3095 3095 3095 3095 3095 3096 3096 3096 3097 3097 3098 3099 3099 3100 3100 3101 3101 3100 3101 3101 3101 3102 3103 3104 3104 3105 3106 3106 3108 3108 3109 3111 3114 3117 3120 3120 3121 3122 3123 3124 3124 3124 3124 3124 3123 3124 3125 3124 3123 3123 3122 3123 3125 3126 3127 3128 3128 3128 3130 3130 3132 3133 3130 3131 3131 3132 3133 3129 3125 3124 3129 3132 3132
3101 3101 3100 3100 3099 3099 3099 3098 3098 3097 3097 3096 3096 3095 3095 3095 3095 3095 3095 3095 3095 3096 3096 3097 3097 3098 3099 3099 3100 3100 3100 3100 3101 3101 3102 3102 3102 3103 3104 3104 3105 3106 3107 3108 3108 3110 3113 3115 3117 3120 3121 3121 3121 3123 3123 3123 3124 3123 3123 3123 3123 3124 3123 3122 3121 3121 3123 3125 3127 3127 3127 3128 3128 3129 3129 3131 3131 3128 3129 3130 3130 3131 3127 3124 3125 3128 3130 3130
3101 3100 3100 3100 3099 3099 3098 3098 3098 3097 3097 3096 3096 3096 3095 3095 3095 3095 3095 3096 3096 3096 3096 3097 3097 3098 3099 3100 3101 3101 3100 3101 3101 3102 3102 3103 3103 3104 3104 3105 3105 3106 3107 3108 3109 3112 3115 3116 3118 3119 3120 3120 3121 3122 3122 3122 3123 3123 3122 3123 3122 3122 3123 3122 3120 3121 3123 3124 3125 3125 3125 3127 3127 3128 3129 3130 3131 3127 3127 3129 3130 3130 3126 3124 3125 3127 3128 3129
3100 3100 3100 3100 3099 3099 3098 3098 3098 3097 3097 3097 3096 3096 3096 3096 3096 3096 3096 3096 3096 3096 3097 3097 3098 3098 3099 3100 3101 3101 3101 3101 3101 3103 3103 3104 3104 3104 3105 3105 3106 3107 3107 3108 3110 3113 3116 3117 3119 3120 3120 3120 3121 3121 3121 3121 3121 3121 3121 3122 3122 3121 3122 3121 3120 3121 3122 3123 3123 3123 3124 3126 3127 3127 3127 3127 3129 3127 3125 3129 3131 3129 3126 3124 3124 3126 3127 3127
3100 3100 3100 3099 3099 3099 3098 3098 3098 3097 3097 3097 3097 3096 3096 3096 3096 3096 3096 3096 3097 3097 3097 3097 3098 3099 3099 3100 3101 3102 3102 3101 3102 3103 3104 3104 3105 3105 3106 3105 3106 3107 3108 3110 3112 3113 3115 3118 3119 3120 3120 3119 3119 3120 3120 3120 3120 3120 3121 3121 3121 3120 3121 3120 3120 3121 3121 3122 3123 3123 3124 3125 3125 3125 3125 3125 3127 3126 3124 3127 3130 3129 3127 3124 3122 3124 3125 3126
3100 3099 3099 3099 3099 3098 3098 3098 3097 3097 3097 3097 3097 3097 3096 3096 3096 3096 3096 3097 3097 3097 3098 3098 3098 3099 3100 3100 3100 3101 3102 3102 3102 3103 3104 3105 3105 3105 3106 3106 3107 3107 3108 3112 3114 3114 3114 3116 3116 3117 3119 3118 3119 3119 3119 3119 3119 3120 3120 3120 3120 3120 3120 3119 3119 3121 3120 3121 3121 3122 3122 3123 3124 3123 3122 3124 3125 3124 3123 3126 3128 3128 3127 3124 3122 3122 3124 3124
3100 3099 3099 3099 3099 3098 3098 3098 3098 3097 3097 3097 3097 3097 3097 3097 3097 3097 3097 3097 3097 3098 3098 3098 3099 3099 3100 3100 3100 3101 3102 3102 3102 3103 3104 3105 3105 3105 3106 3106 3107 3107 3108 3111 3114 3114 3113 3113 3114 3115 3117 3117 3118 3118 3118 3118 3118 3119 3119 3119 3119 3119 3118 3118 3118 3119 3119 3120 3120 3121 3121 3121 3121 3121 3120 3122 3123 3122 3122 3125 3127 3127 3126 3124 3122 3121 3122 3121
3100 3099 3099 3099 3099 3098 3098 3098 3098 3098 3097 3097 3097 3097 3097 3097 3097 3097 3097 3098 3098 3098 3099 3099 3099 3100 3100 3100 3100 3101 3101 3102 3102 3103 3104 3104 3105 3105 3106 3106 3107 3107 3107 3109 3112 3112 3111 3112 3112 3113 3115 3116 3118 3117 3115 3117 3118 3118 3118 3118 3118 3117 3115 3115 3116 3117 3118 3119 3118 3119 3119 3118 3118 3118 3118 3119 3120 3120 3121 3124 3125 3126 3125 3124 3122 3121 3121 3120
3100 3099 3099 3099 3099 3098 3098 3098 3098 3098 3098 3097 3097 3097 3097 3097 3097 3097 3098 3098 3098 3099 3099 3100 3100 3100 3101 3101 3101 3101 3101 3102 3102 3103 3103 3104 3105 3105 3106 3106 3107 3107 3108 3108 3109 3109 3110 3111 3111 3112 3113 3114 3115 3115 3115 3117 3117 3117 3117 3116 3116 3115 3112 3112 3113 3115 3117 3116 3117 3118 3117 3116 3115 3115 3116 3117 3117 3118 3120 3122 3124 3124 3124 3123 3121 3121 3121 3119
3099 3099 3099 3099 3099 3099 3099 3099 3098 3098 3098 3098 3098 3098 3098 3098 3098 3098 3098 3098 3099 3099 3100 3100 3101 3101 3102 3101 3101 3102 3102 3102 3102 3103 3103 3104 3104 3105 3106 3106 3107 3107 3107 3108 3108 3108 3109 3110 3111 3112 3113 3114 3114 3114 3115 3116 3115 3116 3115 3114 3114 3113 3110 3109 3110 3113 3115 3114 3115 3117 3116 3114 3113 3112 3112 3113 3115 3117 3119 3121 3122 3123 3123 3123 3121 3121 3121 3119
3100 3099 3099 3099 3099 3099 3099 3099 3099 3099 3098 3098 3098 3098 3098 3098 3098 3098 3098 3099 3099 3099 3100 3101 3101 3102 3102 3102 3101 3101 3102 3102 3102 3102 3103 3103 3104 3105 3106 3106 3106 3107 3107 3107 3108 3108 3109 3109 3110 3111 3113 3114 3114 3114 3114 3114 3113 3113 3113 3112 3111 3111 3109 3108 3108 3110 3112 3112 3113 3114 3114 3114 3113 3111 3108 3110 3114 3116 3118 3120 3120 3121 3121 3121 3121 3120 3121 3120
3100 3100 3099 3099 3099 3099 3099 3099 3099 3099 3099 3098 3098 3099 3098 3098 3098 3099 3099 3099 3099 3100 3101 3101 3101 3102 3101 3101 3101 3102 3102 3101 3101 3102 3102 3103 3104 3105 3106 3106 3106 3107 3107 3107 3107 3108 3109 3109 3110 3110 3111 3112 3112 3113 3112 3111 3111 3110 3111 3110 3109 3109 3108 3107 3107 3107 3109 3111 3112 3112 3112 3112 3113 3112 3109 3111 3114 3115 3117 3118 3119 3119 3120 3119 3120 3119 3120 3120
3101 3100 3100 3099 3099 3099 3098 3098 3098 3099 3099 3099 3099 3099 3099 3099 3099 3099 3099 3099 3099 3100 3101 3101 3102 3102 3101 3100 3102 3102 3101 3101 3101 3101 3102 3102 3103 3103 3105 3106 3107 3108 3108 3108 3107 3108 3109 3109 3110 3110 3111 3110 3111 3111 3110 3109 3109 3108 3108 3108 3108 3107 3106 3106 3106 3106 3108 3110 3111 3111 3111 3111 3112 3112 3110 3110 3112 3114 3115 3117 3117 3118 3118 3117 3118 3118 3119 3119
3102 3101 3100 3100 3099 3099 3098 3098 3098 3098 3098 3098 3098 3099 3099 3099 3099 3099 3099 3099 3099 3099 3101 3101 3101 3102 3101 3101 3102 3102 3101 3100 3101 3101 3101 3101 3102 3103 3104 3105 3107 3108 3108 3108 3108 3108 3109 3109 3110 3110 3110 3109 3109 3110 3109 3108 3106 3106 3106 3106 3106 3106 3105 3105 3105 3105 3107 3109 3109 3110 3111 3111 3111 3111 3111 3109 3108 3111 3113 3114 3116 3116 3116 3116 3116 3117 3117 3118
3103 3102 3101 3101 3100 3099 3099 3098 3098 3098 3098 3098 3098 3099 3099 3099 3099 3099 3098 3099 3099 3098 3100 3101 3101 3102 3102 3102 3101 3100 3100 3100 3100 3100 3100 3101 3101 3102 3103 3104 3106 3107 3107 3108 3108 3108 3108 3109 3108 3108 3108 3107 3107 3108 3107 3105 3105 3105 3105 3106 3105 3104 3104 3105 3104 3104 3106 3107 3108 3109 3109 3110 3110 3110 3111 3109 3106 3107 3110 3111 3113 3114 3114 3114 3114 3115 3115 3116
3103 3103 3102 3101 3100 3100 3099 3099 3098 3098 3098 3097 3098 3098 3098 3098 3099 3099 3098 3098 3099 3099 3100 3101 3101 3102 3102 3102 3100 3100 3100 3100 3100 3100 3100 3100 3101 3102 3103 3103 3105 3106 3106 3107 3108 3107 3108 3108 3106 3107 3107 3105 3105 3105 3104 3103 3104 3105 3105 3106 3105 3105 3105 3105 3104 3103 3104 3105 3107 3107 3107 3107 3108 3107 3108 3109 3105 3103 3105 3108 3110 3111 3112 3112 3113 3113 3113 3115
3104 3103 3102 3102 3101 3100 3100 3099 3099 3098 3098 3098 3098 3098 3098 3097 3097 3098 3097 3097 3098 3099 3100 3100 3100 3100 3100 3100 3099 3100 3100 3100 3100 3100 3100 3100 3101 3102 3103 3103 3104 3105 3105 3106 3107 3106 3106 3106 3105 3105 3105 3104 3104 3104 3103 3103 3104 3105 3105 3105 3105 3105 3105 3104 3103 3102 3101 3103 3105 3105 3105 3104 3104 3104 3104 3106 3105 3103 3102 3103 3106 3108 3109 3110 3110 3111 3112 3113
3104 3103 3103 3102 3101 3101 3100 3100 3099 3098 3098 3097 3097 3097 3097 3096 3096 3097 3097 3098 3098 3099 3099 3099 3099 3100 3100 3099 3099 3099 3099 3100 3101 3100 3099 3100 3101 3101 3103 3103 3104 3104 3104 3105 3105 3105 3105 3103 3103 3103 3102 3103 3105 3104 3104 3104 3104 3105 3106 3106 3105 3105 3105 3104 3102 3101 3100 3101 3103 3103 3103 3102 3101 3100 3100 3102 3103 3103 3101 3100 3101 3103 3105 3107 3108 3109 3110 3110
3104 3104 3103 3102 3102 3101 3100 3100 3099 3099 3098 3097 3097 3097 3097 3096 3096 3096 3097 3098 3098 3099 3099 3099 3099 3100 3100 3098 3098 3099 3098 3100 3102 3099 3097 3099 3101 3101 3102 3103 3103 3103 3103 3103 3103 3104 3103 3102 3102 3101 3102 3103 3104 3104 3104 3104 3105 3106 3106 3105 3105 3104 3104 3104 3101 3100 3100 3100 3101 3102 3101 3098 3096 3096 3097 3098 3100 3101 3101 3101 3100 3100 3101 3103 3104 3105 3107 3107
3105 3104 3103 3103 3102 3101 3101 3100 3100 3099 3098 3098 3099 3098 3097 3096 3096 3096 3097 3098 3098 3098 3098 3097 3098 3099 3098 3096 3097 3098 3099 3099 3100 3098 3096 3099 3101 3102 3102 3102 3102 3101 3101 3101 3102 3102 3101 3100 3100 3101 3102 3103 3103 3103 3103 3104 3105 3105 3104 3104 3103 3103 3103 3103 3102 3101 3100 3100 3099 3101 3100 3096 3092 3093 3094 3095 3097 3097 3098 3100 3099 3099 3099 3099 3100 3101 3103 3104
3105 3104 3104 3103 3102 3102 3101 3100 3100 3099 3100 3101 3100 3098 3097 3097 3097 3097 3097 3098 3098 3097 3096 3096 3097 3097 3096 3096 3097 3098 3098 3098 3099 3098 3097 3098 3099 3099 3100 3100 3100 3099 3100 3100 3100 3099 3098 3097 3098 3100 3101 3102 3102 3102 3102 3103 3104 3103 3102 3102 3101 3101 3102 3102 3101 3101 3100 3099 3098 3098 3099 3095 3090 3090 3091 3093 3094 3094 3095 3096 3097 3098 3098 3098 3098 3099 3100 3101
3106 3105 3104 3104 3103 3102 3102 3101 3100 3100 3101 3102 3100 3098 3098 3098 3098 3098 3098 3098 3097 3096 3096 3097 3096 3095 3096 3096 3096 3098 3098 3096 3096 3096 3096 3096 3096 3097 3098 3098 3099 3098 3098 3099 3097 3095 3095 3096 3097 3099 3100 3101 3101 3101 3101 3101 3102 3100 3099 3100 3100 3100 3101 3101 3101 3101 3100 3100 3098 3096 3097 3095 3091 3089 3090 3090 3091 3092 3093 3094 3094 3096 3096 3097 3097 3098 3097 3098
3106 3105 3105 3104 3103 3103 3102 3101 3101 3101 3101 3101 3099 3099 3099 3099 3099 3099 3099 3099 3096 3095 3096 3096 3095 3095 3096 3096 3095 3097 3097 3096 3096 3095 3095 3095 3095 3096 3097 3096 3097 3097 3097 3098 3095 3093 3094 3096 3096 3097 3099 3099 3099 3099 3099 3100 3100 3099 3098 3099 3099 3099 3100 3101 3101 3100 3099 3099 3096 3094 3095 3094 3090 3088 3088 3088 3088 3088 3090 3091 3092 3093 3094 3095 3095 3096 3096 3096
3106 3105 3105 3104 3104 3103 3103 3102 3101 3101 3101 3100 3100 3099 3099 3099 3100 3099 3100 3099 3096 3095 3096 3095 3095 3095 3095 3096 3095 3096 3096 3097 3096 3095 3095 3094 3094 3095 3095 3095 3096 3095 3094 3094 3094 3093 3095 3095 3095 3096 3097 3097 3097 3097 3097 3098 3098 3097 3097 3098 3099 3098 3099 3100 3099 3099 3098 3096 3092 3092 3092 3090 3086 3085 3085 3085 3084 3085 3087 3089 3090 3091 3091 3092 3093 3093 3095 3095
3106 3105 3105 3104 3104 3103 3103 3102 3102 3101 3101 3101 3100 3100 3100 3100 3100 3100 3101 3099 3095 3094 3095 3095 3095 3095 3095 3095 3095 3096 3096 3096 3095 3095 3095 3094 3094 3094 3093 3094 3095 3094 3093 3093 3093 3094 3094 3094 3094 3095 3095 3095 3096 3095 3095 3096 3096 3096 3097 3098 3098 3098 3098 3098 3097 3098 3096 3092 3089 3089 3090 3088 3084 3082 3083 3082 3081 3083 3086 3087 3088 3089 3090 3090 3091 3091 3092 3093
3106 3105 3105 3104 3104 3103 3103 3102 3102 3102 3101 3101 3100 3100 3100 3100 3100 3100 3098 3096 3095 3094 3095 3095 3095 3095 3095 3095 3095 3095 3095 3094 3094 3094 3094 3094 3094 3093 3093 3093 3093 3094 3093 3092 3092 3093 3093 3093 3092 3093 3094 3094 3094 3094 3094 3095 3095 3096 3097 3097 3097 3095 3095 3096 3095 3096 3094 3089 3087 3087 3087 3087 3084 3081 3082 3082 3081 3083 3085 3086 3086 3088 3088 3088 3089 3090 3090 3091
3105 3105 3104 3104 3103 3103 3103 3102 3102 3102 3101 3101 3101 3100 3100 3100 3099 3098 3095 3094 3094 3094 3095 3095 3095 3095 3094 3094 3094 3094 3093 3093 3093 3093 3093 3093 3093 3092 3093 3092 3092 3092 3091 3090 3090 3090 3091 3091 3091 3092 3092 3092 3093 3093 3093 3094 3094 3096 3096 3096 3096 3093 3092 3092 3091 3091 3089 3086 3086 3086 3085 3083 3081 3080 3081 3082 3082 3084 3085 3085 3086 3087 3087 3086 3086 3087 3088 3089
3105 3105 3104 3104 3103 3103 3103 3102 3102 3102 3101 3101 3101 3100 3101 3100 3098 3095 3095 3094 3093 3094 3095 3094 3094 3094 3094 3093 3092 3091 3091 3092 3092 3092 3092 3092 3092 3091 3091 3091 3092 3091 3089 3088 3089 3089 3089 3089 3090 3090 3090 3090 3091 3091 3091 3091 3092 3093 3094 3094 3093 3091 3090 3089 3087 3086 3084 3083 3084 3085 3084 3082 3079 3080 3080 3081 3082 3083 3084 3084 3085 3086 3086 3085 3085 3086 3086 3087
3105 3104 3104 3103 3103 3102 3102 3102 3101 3101 3101 3101 3100 3100 3101 3100 3097 3095 3095 3094 3094 3094 3094 3094 3094 3093 3093 3092 3090 3089 3089 3090 3091 3091 3091 3091 3091 3090 3090 3090 3090 3090 3089 3089 3089 3088 3088 3087 3088 3088 3088 3088 3089 3090 3090 3089 3089 3090 3091 3092 3090 3089 3089 3088 3086 3085 3083 3082 3083 3084 3083 3081 3079 3079 3080 3080 3081 3082 3082 3082 3083 3084 3085 3085 3085 3086 3087 3087
3105 3104 3104 3103 3103 3102 3102 3101 3101 3101 3100 3100 3100 3100 3100 3098 3097 3096 3095 3094 3094 3094 3093 3093 3093 3092 3091 3089 3088 3088 3088 3089 3089 3089 3089 3090 3089 3089 3089 3089 3089 3089 3089 3088 3088 3087 3086 3085 3085 3086 3086 3086 3087 3088 3089 3089 3088 3087 3087 3088 3087 3088 3088 3086 3085 3085 3085 3083 3082 3082 3081 3079 3078 3079 3079 3080 3080 3080 3081 3081 3081 3081 3083 3084 3084 3085 3086 3086
3104 3104 3103 3103 3102 3102 3101 3101 3100 3100 3100 3099 3100 3100 3099 3097 3097 3096 3095 3094 3094 3094 3093 3092 3092 3090 3088 3086 3086 3087 3088 3088 3089 3089 3088 3087 3087 3086 3086 3086 3087 3088 3088 3088 3087 3086 3085 3083 3084 3085 3084 3085 3086 3086 3087 3087 3086 3085 3085 3084 3083 3086 3087 3086 3085 3085 3086 3084 3080 3079 3078 3077 3077 3077 3076 3078 3078 3078 3079 3079 3079 3080 3080 3082 3082 3083 3085 3085
3104 3103 3102 3102 3102 3102 3101 3100 3100 3100 3099 3099 3099 3099 3098 3097 3096 3096 3094 3093 3094 3094 3093 3092 3090 3089 3087 3085 3086 3087 3087 3088 3088 3087 3086 3086 3085 3084 3084 3084 3085 3086 3087 3087 3086 3086 3085 3082 3082 3083 3082 3083 3084 3085 3084 3084 3084 3084 3083 3082 3083 3084 3084 3084 3083 3083 3084 3082 3078 3076 3076 3076 3075 3074 3074 3075 3075 3076 3077 3077 3077 3078 3079 3079 3080 3081 3082 3083
3103 3102 3101 3101 3101 3101 3101 3100 3099 3099 3099 3099 3098 3098 3097 3096 3095 3095 3094 3093 3093 3093 3093 3092 3090 3089 3088 3087 3087 3087 3087 3086 3087 3087 3085 3084 3083 3083 3083 3083 3084 3085 3086 3086 3085 3085 3085 3082 3080 3082 3081 3081 3082 3082 3080 3080 3081 3081 3080 3081 3082 3082 3080 3080 3080 3080 3081 3080 3076 3074 3074 3073 3072 3071 3072 3073 3073 3074 3074 3074 3075 3076 3077 3078 3078 3079 3080 3080
3102 3101 3101 3101 3101 3100 3100 3100 3099 3098 3098 3098 3098 3097 3096 3096 3095 3093 3092 3092 3092 3092 3092 3091 3090 3089 3088 3088 3087 3087 3086 3085 3085 3086 3085 3084 3082 3081 3082 3083 3083 3084 3084 3084 3085 3084 3084 3082 3078 3079 3080 3079 3080 3079 3077 3077 3079 3079 3079 3079 3080 3080 3078 3078 3078 3078 3078 3077 3075 3073 3071 3070 3069 3069 3070 3071 3071 3072 3072 3073 3074 3075 3075 3076 3077 3078 3078 3078
3101 3101 3101 3101 3101 3100 3099 3099 3098 3097 3097 3098 3098 3096 3096 3095 3094 3093 3091 3090 3091 3091 3091 3090 3090 3089 3088 3088 3087 3086 3086 3085 3084 3084 3084 3083 3082 3081 3081 3081 3081 3082 3083 3083 3084 3083 3083 3081 3077 3077 3078 3077 3076 3076 3076 3076 3077 3077 3077 3077 3077 3077 3077 3076 3075 3075 3075 3074 3073 3072 3069 3066 3067 3069 3069 3069 3070 3071 3071 3071 3073 3073 3074 3074 3075 3075 3075 3076
3101 3101 3101 3101 3100 3100 3099 3097 3096 3096 3097 3097 3096 3095 3095 3093 3092 3092 3091 3089 3088 3089 3090 3089 3088 3088 3087 3087 3086 3086 3085 3084 3083 3083 3082 3082 3082 3081 3079 3078 3079 3081 3081 3082 3082 3081 3081 3080 3077 3075 3076 3074 3073 3074 3074 3074 3074 3075 3075 3075 3074 3075 3075 3074 3074 3073 3074 3073 3072 3072 3068 3063 3065 3068 3068 3068 3069 3069 3070 3070 3070 3071 3072 3072 3072 3073 3073 3074
3102 3102 3101 3100 3100 3099 3097 3097 3096 3096 3096 3096 3094 3094 3093 3091 3090 3091 3091 3089 3088 3088 3088 3088 3087 3087 3086 3085 3085 3084 3084 3083 3082 3082 3081 3081 3081 3079 3077 3077 3078 3079 3079 3080 3081 3079 3078 3078 3076 3074 3073 3071 3070 3071 3071 3071 3071 3072 3072 3072 3072 3073 3073 3073 3071 3070 3072 3071 3070 3070 3067 3061 3062 3067 3067 3066 3068 3068 3068 3068 3068 3068 3069 3069 3069 3069 3070 3071
3101 3101 3099 3098 3098 3097 3096 3096 3096 3096 3095 3094 3092 3092 3092 3090 3089 3089 3089 3089 3088 3087 3087 3086 3086 3085 3084 3084 3084 3083 3083 3081 3080 3081 3080 3080 3080 3077 3075 3076 3077 3077 3078 3079 3079 3076 3076 3077 3076 3072 3070 3068 3067 3067 3068 3068 3069 3069 3069 3069 3070 3069 3069 3069 3068 3067 3068 3067 3067 3068 3065 3060 3061 3065 3065 3065 3066 3066 3066 3065 3066 3066 3066 3066 3066 3066 3066 3067
3100 3099 3098 3097 3096 3096 3095 3095 3095 3094 3093 3092 3091 3090 3090 3089 3088 3087 3087 3088 3087 3086 3085 3084 3084 3084 3083 3083 3082 3081 3081 3080 3079 3079 3079 3078 3078 3076 3074 3075 3075 3076 3076 3075 3076 3075 3075 3076 3075 3071 3069 3066 3065 3065 3064 3065 3067 3066 3065 3066 3066 3066 3066 3065 3066 3066 3065 3064 3064 3065 3062 3059 3060 3062 3063 3063 3064 3063 3063 3063 3064 3064 3064 3065 3064 3064 3064 3064
3098 3098 3098 3096 3095 3094 3094 3094 3093 3092 3091 3090 3089 3088 3087 3087 3087 3085 3084 3084 3084 3084 3083 3082 3082 3082 3081 3081 3080 3080 3080 3079 3078 3077 3077 3076 3076 3075 3075 3074 3074 3075 3074 3072 3074 3075 3074 3075 3074 3072 3069 3066 3064 3064 3063 3064 3065 3065 3064 3065 3064 3064 3064 3064 3064 3064 3062 3060 3062 3062 3060 3058 3058 3058 3059 3060 3061 3060 3060 3061 3060 3060 3061 3061 3061 3061 3062 3062
3097 3097 3096 3094 3093 3093 3093 3092 3091 3090 3089 3088 3086 3085 3085 3085 3085 3084 3081 3081 3082 3081 3081 3080 3080 3079 3079 3079 3078 3077 3077 3077 3076 3075 3075 3075 3074 3074 3075 3073 3072 3072 3071 3070 3072 3073 3072 3071 3071 3071 3068 3065 3063 3063 3063 3064 3064 3064 3064 3063 3063 3063 3063 3063 3063 3061 3060 3059 3058 3058 3058 3057 3055 3054 3054 3055 3057 3057 3057 3057 3057 3057 3057 3057 3058 3058 3059 3059
3096 3096 3093 3092 3092 3092 3092 3092 3090 3088 3087 3086 3084 3083 3083 3082 3083 3082 3079 3079 3080 3079 3078 3078 3077 3077 3077 3077 3076 3075 3075 3075 3074 3073 3073 3073 3072 3073 3073 3072 3072 3070 3068 3069 3070 3070 3069 3068 3067 3068 3065 3063 3062 3062 3063 3064 3063 3062 3062 3060 3059 3059 3060 3060 3059 3059 3060 3058 3055 3054 3056 3055 3053 3051 3050 3050 3052 3053 3054 3054 3054 3054 3054 3054 3053 3053 3054 3055
3095 3094 3092 3091 3091 3090 3089 3089 3087 3085 3084 3084 3083 3082 3081 3080 3081 3081 3079 3079 3079 3078 3077 3076 3075 3076 3076 3075 3075 3074 3073 3072 3072 3071 3071 3071 3070 3070 3069 3070 3070 3068 3067 3068 3067 3067 3067 3065 3065 3066 3062 3060 3061 3061 3061 3062 3061 3060 3059 3057 3055 3055 3056 3057 3056 3057 3058 3056 3052 3051 3052 3051 3050 3048 3045 3045 3048 3049 3049 3050 3050 3049 3049 3049 3049 3049 3049 3050
3093 3092 3090 3089 3088 3087 3086 3085 3083 3082 3081 3081 3080 3080 3079 3078 3078 3078 3078 3078 3077 3076 3076 3074 3074 3074 3074 3074 3073 3072 3072 3071 3070 3070 3070 3069 3068 3068 3067 3066 3066 3066 3066 3067 3066 3066 3064 3062 3063 3063 3060 3057 3058 3059 3059 3060 3058 3057 3055 3051 3050 3051 3053 3054 3053 3053 3054 3052 3050 3049 3048 3046 3045 3044 3043 3043 3044 3044 3044 3045 3045 3045 3045 3045 3045 3044 3044 3044
3090 3089 3087 3086 3085 3084 3083 3082 3081 3080 3079 3079 3078 3077 3077 3076 3076 3076 3076 3076 3074 3074 3074 3073 3072 3072 3072 3072 3071 3070 3070 3068 3066 3067 3067 3065 3065 3065 3065 3064 3064 3064 3064 3064 3065 3064 3062 3060 3060 3061 3057 3053 3054 3057 3057 3056 3056 3053 3048 3045 3046 3049 3050 3050 3049 3049 3049 3047 3046 3047 3045 3041 3038 3040 3041 3041 3040 3040 3041 3041 3042 3042 3041 3041 3040 3040 3040 3040
3087 3086 3084 3082 3082 3081 3081 3080 3079 3079 3078 3077 3077 3076 3075 3075 3075 3074 3074 3073 3072 3071 3072 3071 3070 3069 3069 3068 3068 3068 3066 3063 3063 3064 3063 3061 3062 3063 3064 3063 3063 3063 3062 3062 3062 3061 3060 3059 3058 3059 3055 3048 3051 3056 3054 3053 3053 3048 3040 3040 3045 3047 3046 3045 3045 3045 3045 3044 3043 3043 3040 3036 3035 3037 3038 3039 3038 3037 3037 3037 3037 3036 3036 3035 3034 3034 3035 3035
3084 3083 3082 3080 3078 3078 3078 3078 3078 3078 3077 3075 3075 3075 3074 3073 3073 3072 3071 3069 3069 3070 3070 3069 3067 3066 3066 3065 3066 3066 3063 3060 3060 3060 3059 3058 3059 3060 3060 3059 3060 3060 3060 3060 3059 3058 3059 3057 3056 3057 3053 3045 3048 3053 3052 3051 3048 3039 3034 3038 3042 3043 3041 3041 3041 3041 3041 3041 3040 3037 3035 3034 3036 3036 3035 3035 3035 3034 3033 3032 3030 3029 3030 3030 3029 3029 3029 3029